CST,Max TemperatureF,Mean TemperatureF,Min TemperatureF,Max Dew PointF,MeanDew PointF,Min DewpointF,Max Humidity, Mean Humidity, Min Humidity, Max Sea Level PressureIn, Mean Sea Level PressureIn, Min Sea Level PressureIn, Max VisibilityMiles, Mean VisibilityMiles, Min VisibilityMiles, Max Wind SpeedMPH, Mean Wind SpeedMPH, Max Gust SpeedMPH,PrecipitationIn, CloudCover, Events, WindDirDegrees
2013-1-1,14,2,-11,10,-2,-17,92,77,53,30.21,30.13,30.03,10,10,5,12,4,,0.00,3,Snow,227
2013-1-2,19,16,14,16,12,10,93,82,73,30.03,29.99,29.94,10,8,2,10,5,,0.00,8,Snow,194
2013-1-3,21,16,10,19,13,5,93,84,74,30.14,30.08,30.01,10,7,2,12,6,,0.00,6,Snow,254
2013-1-4,32,19,6,19,12,3,93,80,60,30.12,30.03,29.95,10,10,7,9,5,,0.00,1,Snow,224
2013-1-5,26,16,5,19,12,3,93,87,69,30.12,29.95,29.83,10,9,5,9,3,,0.00,1,,152
2013-1-6,28,21,14,23,16,10,93,78,55,30.17,30.08,29.89,10,10,7,15,6,17,0.00,3,Snow,255
2013-1-7,33,24,14,27,19,9,93,80,64,30.08,29.92,29.85,10,10,7,17,9,24,0.00,0,,191
2013-1-8,37,22,8,30,22,5,100,87,65,30.01,29.90,29.76,10,7,0,17,4,24,0.00,3,Fog,155
2013-1-9,33,26,19,28,24,14,93,77,64,30.36,30.10,29.81,10,10,10,23,11,31,0.00,2,,246
2013-1-10,41,30,19,34,22,16,100,70,36,30.39,30.16,29.79,10,9,4,12,6,20,0.28,3,Rain,136
2013-1-11,42,37,33,41,36,34,100,98,93,29.79,29.59,29.41,7,2,0,14,7,21,0.01,8,Fog-Rain,151
2013-1-12,42,27,12,43,19,5,100,78,67,30.00,29.73,29.39,10,9,2,28,15,38,0.01,8,Rain-Snow,233
2013-1-13,14,8,3,7,4,0,92,75,57,30.17,30.03,29.94,10,9,3,12,8,16,0.00,7,Snow,291
2013-1-14,14,8,1,7,2,-2,92,81,67,30.34,30.29,30.17,10,9,2,13,5,16,0.00,3,Snow,224
2013-1-15,28,16,5,18,11,3,93,74,51,30.30,30.12,29.84,10,10,7,16,6,21,0.00,2,,183
2013-1-16,32,22,12,28,17,1,93,73,47,30.14,29.80,29.61,10,9,1,16,12,26,0.00,5,Snow,269
2013-1-17,14,7,0,5,0,-6,92,69,61,30.34,30.28,30.14,10,9,4,12,6,,0.00,4,Snow,298
2013-1-18,33,17,1,28,16,-2,100,85,74,30.30,29.92,29.69,10,8,0,13,4,18,0.01,5,Fog-Snow,164
2013-1-19,35,20,3,30,17,-4,100,81,58,30.03,29.75,29.58,10,8,2,34,8,45,0.00,6,Snow,270
2013-1-20,8,2,-4,-4,-7,-9,85,70,48,30.27,30.19,30.04,10,10,7,20,11,26,0.00,3,,278
2013-1-21,0,-6,-13,-6,-17,-22,78,66,50,30.21,30.17,30.12,10,9,2,18,10,24,0.00,3,Snow,283
2013-1-22,0,-8,-16,-13,-17,-24,84,69,51,30.31,30.25,30.20,10,10,10,9,5,,0.00,0,,261
2013-1-23,14,2,-11,5,-6,-17,85,74,60,30.50,30.21,30.05,10,8,1,23,5,30,0.00,5,Snow,306
2013-1-24,10,0,-11,3,-8,-17,84,70,48,30.62,30.49,30.25,10,9,2,9,5,,0.00,3,Snow,156
2013-1-25,19,12,5,14,8,1,93,79,63,30.21,30.01,29.88,10,6,1,15,9,20,0.00,7,Snow,249
2013-1-26,23,5,-13,12,2,-17,92,74,58,30.35,30.26,30.17,10,10,10,12,4,17,0.00,3,,157
2013-1-27,32,28,23,30,21,12,100,77,55,30.18,30.02,29.83,10,6,1,13,7,,0.09,8,Rain-Snow,127
2013-1-28,33,30,26,30,29,25,100,93,81,29.91,29.84,29.71,10,6,1,10,2,,0.07,7,Rain-Snow,150
2013-1-29,33,32,30,34,31,27,100,93,86,29.70,29.58,29.49,10,6,0,16,8,21,0.31,8,Fog-Rain-Snow-Thunderstorm,344
2013-1-30,30,20,10,25,15,3,86,80,73,29.64,29.55,29.49,10,7,1,20,14,28,0.00,8,Snow,331
2013-1-31,10,5,0,5,-1,-8,85,72,57,30.10,29.85,29.62,10,9,2,20,11,23,0.00,7,Snow,301